When you browse on this site, cookies collect data to enhance your experience and personalize the content and advertising you see.
Visit our Privacy Policy to learn more. By continuing to use the site, you agree to this use of cookies and data.

Hourly Weather Zorya

Today, 22 September, Tuesday

Time Temperature Precipitation Wind Pressure Humidity
00:00 +14°C° 0 mm 2 mps 762 mmHg 61%
01:00 +14°C° 0 mm 2 mps 762 mmHg 61%
02:00 +14°C° 0 mm 2 mps 763 mmHg 61%
03:00 +14°C° 0 mm 2 mps 763 mmHg 63%
04:00 +14°C° 0 mm 2 mps 763 mmHg 65%
05:00 +14°C° 0 mm 2 mps 762 mmHg 67%
06:00 +16°C° 0 mm 3 mps 763 mmHg 59%
07:00 +18°C° 0 mm 4 mps 763 mmHg 51%
08:00 +20°C° 0 mm 4 mps 763 mmHg 43%
09:00 +21°C° 0 mm 5 mps 763 mmHg 39%
10:00 +22°C° 0 mm 6 mps 763 mmHg 35%
11:00 +23°C° 0 mm 6 mps 763 mmHg 32%
12:00 +24°C° 0 mm 6 mps 763 mmHg 31%
13:00 +24°C° 0 mm 6 mps 763 mmHg 30%
14:00 +25°C° 0 mm 5 mps 762 mmHg 29%
15:00 +23°C° 0 mm 5 mps 762 mmHg 33%
16:00 +22°C° 0 mm 5 mps 762 mmHg 38%
17:00 +20°C° 0 mm 4 mps 762 mmHg 42%
18:00 +19°C° 0 mm 4 mps 762 mmHg 49%
19:00 +17°C° 0 mm 3 mps 762 mmHg 56%
20:00 +16°C° 0 mm 2 mps 762 mmHg 63%
21:00 +16°C° 0 mm 2 mps 761 mmHg 64%
22:00 +15°C° 0 mm 2 mps 761 mmHg 65%
23:00 +15°C° 0 mm 1 mps 761 mmHg 67%

Tomorrow, 23 September, Wednesday

Time Temperature Precipitation Wind Pressure Humidity
00:00 +15°C° 0 mm 2 mps 760 mmHg 67%
01:00 +15°C° 0 mm 2 mps 760 mmHg 67%
02:00 +16°C° 0 mm 2 mps 760 mmHg 67%
03:00 +16°C° 0 mm 2 mps 760 mmHg 71%
04:00 +16°C° 0 mm 2 mps 760 mmHg 74%
05:00 +16°C° 0 mm 2 mps 760 mmHg 78%
06:00 +18°C° 0 mm 2 mps 760 mmHg 69%
07:00 +20°C° 0 mm 3 mps 760 mmHg 61%
08:00 +22°C° 0 mm 3 mps 760 mmHg 53%
09:00 +25°C° 0 mm 4 mps 760 mmHg 48%
10:00 +26°C° 0 mm 5 mps 759 mmHg 44%
11:00 +28°C° 0 mm 6 mps 759 mmHg 39%
12:00 +28°C° 0 mm 6 mps 759 mmHg 40%
13:00 +27°C° 0 mm 6 mps 759 mmHg 42%
14:00 +27°C° 0 mm 6 mps 758 mmHg 43%
15:00 +26°C° 0 mm 5 mps 758 mmHg 48%
16:00 +25°C° 0 mm 5 mps 758 mmHg 54%
17:00 +22°C° 0 mm 4 mps 758 mmHg 60%
18:00 +21°C° 0 mm 3 mps 758 mmHg 66%
19:00 +19°C° 0 mm 3 mps 758 mmHg 73%
20:00 +18°C° 0 mm 2 mps 758 mmHg 80%
21:00 +18°C° 0 mm 2 mps 757 mmHg 81%
22:00 +18°C° 0 mm 1 mps 757 mmHg 81%
23:00 +16°C° 0 mm 0 mps 757 mmHg 82%

Day after tomorrow, 24 September, Thursday

Time Temperature Precipitation Wind Pressure Humidity
00:00 +18°C° 0 mm 1 mps 757 mmHg 81%
01:00 +18°C° 0 mm 1 mps 757 mmHg 80%
02:00 +18°C° 0 mm 1 mps 757 mmHg 79%
03:00 +18°C° 0 mm 1 mps 757 mmHg 80%
04:00 +18°C° 0 mm 1 mps 757 mmHg 81%
05:00 +16°C° 0 mm 1 mps 757 mmHg 81%
06:00 +19°C° 0 mm 1 mps 757 mmHg 74%
07:00 +21°C° 0 mm 1 mps 757 mmHg 67%
08:00 +23°C° 0 mm 1 mps 757 mmHg 60%
09:00 +25°C° 0 mm 1 mps 757 mmHg 53%
10:00 +27°C° 0 mm 2 mps 757 mmHg 45%
11:00 +29°C° 0 mm 2 mps 757 mmHg 38%
12:00 +29°C° 0 mm 3 mps 757 mmHg 38%
13:00 +29°C° 0 mm 3 mps 757 mmHg 38%
14:00 +29°C° 0 mm 4 mps 756 mmHg 38%
15:00 +28°C° 0 mm 4 mps 756 mmHg 46%
16:00 +26°C° 0 mm 4 mps 756 mmHg 54%
17:00 +25°C° 0 mm 5 mps 756 mmHg 62%
18:00 +22°C° 0 mm 4 mps 756 mmHg 69%
19:00 +21°C° 0 mm 3 mps 756 mmHg 76%
20:00 +19°C° 0 mm 2 mps 757 mmHg 83%
21:00 +20°C° 0 mm 1 mps 756 mmHg 83%
22:00 +20°C° 0 mm 1 mps 756 mmHg 83%
23:00 +18°C° 0 mm 0 mps 756 mmHg 83%

25 September, Friday

Time Temperature Precipitation Wind Pressure Humidity
00:00 +17°C° 0 mm 0 mps 756 mmHg 84%
01:00 +17°C° 0 mm 0 mps 756 mmHg 84%
02:00 +17°C° 0 mm 0 mps 755 mmHg 85%
03:00 +17°C° 0 mm 0 mps 756 mmHg 85%
04:00 +17°C° 0 mm 0 mps 756 mmHg 86%
05:00 +17°C° 0 mm 0 mps 756 mmHg 86%
06:00 +20°C° 0 mm 1 mps 756 mmHg 78%
07:00 +22°C° 0 mm 1 mps 756 mmHg 70%
08:00 +24°C° 0 mm 1 mps 756 mmHg 62%
09:00 +25°C° 0 mm 2 mps 756 mmHg 55%
10:00 +27°C° 0 mm 2 mps 755 mmHg 49%
11:00 +29°C° 0 mm 3 mps 755 mmHg 42%
12:00 +29°C° 0 mm 3 mps 755 mmHg 42%
13:00 +29°C° 0 mm 4 mps 755 mmHg 42%
14:00 +29°C° 0 mm 4 mps 755 mmHg 43%
15:00 +27°C° 0 mm 4 mps 755 mmHg 50%
16:00 +26°C° 0 mm 4 mps 754 mmHg 57%
17:00 +23°C° 0 mm 4 mps 754 mmHg 64%
18:00 +22°C° 0 mm 3 mps 754 mmHg 70%
19:00 +21°C° 0 mm 2 mps 754 mmHg 76%
20:00 +20°C° 0 mm 1 mps 754 mmHg 82%
21:00 +20°C° 0 mm 1 mps 754 mmHg 83%
22:00 +20°C° 0 mm 1 mps 754 mmHg 83%
23:00 +17°C° 0 mm 0 mps 754 mmHg 84%

26 September, Saturday

Time Temperature Precipitation Wind Pressure Humidity
00:00 +17°C° 0 mm 0 mps 754 mmHg 84%
01:00 +17°C° 0 mm 0 mps 753 mmHg 85%
02:00 +17°C° 0 mm 0 mps 753 mmHg 85%
03:00 +17°C° 0 mm 0 mps 753 mmHg 86%
04:00 +16°C° 0 mm 0 mps 753 mmHg 86%
05:00 +16°C° 0 mm 0 mps 753 mmHg 86%
06:00 +20°C° 0 mm 1 mps 753 mmHg 77%
07:00 +22°C° 0 mm 1 mps 753 mmHg 69%
08:00 +24°C° 0 mm 2 mps 753 mmHg 61%
09:00 +26°C° 0 mm 3 mps 753 mmHg 52%
10:00 +28°C° 0 mm 3 mps 753 mmHg 43%
11:00 +30°C° 0 mm 4 mps 753 mmHg 34%
12:00 +32°C° 0 mm 4 mps 753 mmHg 33%
13:00 +32°C° 0 mm 5 mps 753 mmHg 33%
14:00 +33°C° 0 mm 6 mps 752 mmHg 32%
15:00 +30°C° 0 mm 6 mps 752 mmHg 37%
16:00 +29°C° 0 mm 6 mps 752 mmHg 43%
17:00 +27°C° 0 mm 6 mps 752 mmHg 48%
18:00 +25°C° 0 mm 5 mps 752 mmHg 54%
19:00 +23°C° 0 mm 5 mps 752 mmHg 60%
20:00 +21°C° 0 mm 4 mps 752 mmHg 66%
21:00 +21°C° 0 mm 5 mps 752 mmHg 69%
22:00 +20°C° 0 mm 5 mps 752 mmHg 71%
23:00 +20°C° 0 mm 5 mps 752 mmHg 74%

27 September, Sunday

Time Temperature Precipitation Wind Pressure Humidity
00:00 +20°C° 0 mm 5 mps 752 mmHg 73%
01:00 +21°C° 0 mm 6 mps 751 mmHg 72%
02:00 +21°C° 0 mm 6 mps 751 mmHg 71%
03:00 +21°C° 0 mm 6 mps 751 mmHg 72%
04:00 +21°C° 0 mm 7 mps 751 mmHg 72%
05:00 +21°C° 0 mm 7 mps 751 mmHg 73%
06:00 +23°C° 0.1 mm 7 mps 751 mmHg 66%
07:00 +24°C° 0.1 mm 6 mps 752 mmHg 58%
08:00 +27°C° 0.1 mm 6 mps 752 mmHg 51%
09:00 +28°C° 0.2 mm 6 mps 752 mmHg 46%
10:00 +30°C° 0.2 mm 5 mps 752 mmHg 41%
11:00 +32°C° 0.2 mm 5 mps 753 mmHg 36%
12:00 +32°C° 0.1 mm 5 mps 753 mmHg 39%
13:00 +30°C° 0.1 mm 5 mps 753 mmHg 42%
14:00 +29°C° 0.1 mm 5 mps 753 mmHg 45%
15:00 +28°C° 0.3 mm 5 mps 754 mmHg 48%
16:00 +27°C° 0.3 mm 5 mps 754 mmHg 52%
17:00 +26°C° 0.3 mm 4 mps 755 mmHg 55%
18:00 +25°C° 0 mm 4 mps 755 mmHg 61%
19:00 +22°C° 0 mm 3 mps 756 mmHg 67%
20:00 +20°C° 0 mm 3 mps 756 mmHg 73%
21:00 +20°C° 0 mm 3 mps 757 mmHg 77%
22:00 +19°C° 0 mm 3 mps 757 mmHg 80%
23:00 +18°C° 0 mm 3 mps 757 mmHg 84%
Show more